User: anonymous   Login
Location: Launois
(49.6535°N, 4.5395°E)
Time: 09:39:59
(UTC+00:00)
Language:

Cosmos 1763 Rocket - Orbit

View from above orbital plane
View from above orbital plane
View from above satellite
View from above satellite

Ground track
Ground track

The orbit data is extracted from the following two-line orbital elements,

1 16864U 86052B   24197.87214782  .00000615  00000-0  19666-3 0  9991
2 16864  74.0304 348.5965 0032504 173.8839 186.2720 14.41435791995039
Epoch (UTC): 15 July 2024 20:55:53
Eccentricity: 0.0032504
inclination: 74.0304°
perigee height: 730 km
apogee height: 777 km
right ascension of ascending node: 348.5965°
argument of perigee: 173.8839°
revolutions per day: 14.41435791
mean anomaly at epoch: 186.2720°
orbit number at epoch: 99503

The dashed part of the orbit path shows where the satellite is in the earth's shadow,  

DLR